Change the Weather History Date:

Friday, May 9, 2014

  Actual Average Record
Temperature  
Mean Temperature 61 °F -  
Max Temperature 71 °F 67 °F 85 °F (1965)
Min Temperature 51 °F 45 °F 26 °F (1966)
Degree Days  
Heating Degree Days 4    
Growing Degree Days 11 (Base 50)    
Moisture  
Dew Point 52 °F    
Average Humidity 68    
Maximum Humidity 88    
Minimum Humidity 40    
Precipitation  
Precipitation 0.00 in - - ()
Sea Level Pressure  
Sea Level Pressure 29.71 in    
Wind  
Wind Speed 15 mph (SW)    
Max Wind Speed 25 mph    
Max Gust Speed 34 mph    
Visibility 10 miles    
Events Rain    
Averages and records for this station are not official NWS values.
T = Trace of Precipitation, MM = Missing Value Source: NWS Daily Summary

Daily Weather History Graph

Daily Weather History Graph

Search for Another Location

Airport or City:

Trip Planner

Search our weather history database for the weather conditions in past years. The results will help you decide how hot, cold, wet, or windy it might be!

Date:

Astronomy

May. 09, 2014 Rise Set
Actual Time 5:35 AM CDT 8:02 PM CDT
Civil Twilight 5:03 AM CDT 8:34 PM CDT
Nautical Twilight 4:23 AM CDT 9:14 PM CDT
Astronomical Twilight 3:38 AM CDT 9:59 PM CDT
Moon 2:51 PM CDT (5/9) 2:46 AM CDT (5/9)
Length of Visible Light 15h 31m
Length of Day
14h 27m
Waxing Gibbous, 74% of the Moon is Illuminated
May 9
Waxing Gibbous
May 14
Full
May 21
Last Quarter
May 28
New
Jun 5
First Quarter

Hourly Weather History & Observations

Time (CDT) Temp. Dew Point Humidity Pressure Visibility Wind Dir Wind Speed Gust Speed Precip Events Conditions
12:15 AM 71.6 °F 55.4 °F 57% 29.75 in 10.0 mi SSW 18.4 mph 29.9 mph N/A   Mostly Cloudy
12:35 AM 71.6 °F 57.2 °F 60% 29.75 in 10.0 mi SSW 18.4 mph 32.2 mph N/A   Scattered Clouds
12:55 AM 69.8 °F 57.2 °F 64% 29.75 in 10.0 mi SSW 19.6 mph 26.5 mph N/A Rain Light Rain
1:15 AM 68.0 °F 57.2 °F 68% 29.74 in 10.0 mi SSW 17.3 mph 25.3 mph N/A Rain Rain
1:35 AM 68.0 °F 57.2 °F 68% 29.73 in 10.0 mi SSW 16.1 mph 24.2 mph N/A Rain Rain
1:55 AM 66.2 °F 55.4 °F 68% 29.71 in 10.0 mi SSW 12.7 mph 23.0 mph N/A Rain Rain
2:15 AM 66.2 °F 57.2 °F 73% 29.70 in 10.0 mi SSW 10.4 mph - N/A Rain Light Rain
2:35 AM 64.4 °F 57.2 °F 77% 29.69 in 10.0 mi South 10.4 mph - N/A   Overcast
2:55 AM 64.4 °F 59.0 °F 83% 29.70 in 10.0 mi South 10.4 mph 18.4 mph N/A   Overcast
3:15 AM 64.4 °F 59.0 °F 83% 29.70 in 10.0 mi SSW 12.7 mph 20.7 mph N/A   Overcast
3:35 AM 64.4 °F 59.0 °F 83% 29.69 in 10.0 mi South 11.5 mph 18.4 mph N/A   Overcast
3:55 AM 64.4 °F 59.0 °F 83% 29.69 in 10.0 mi SSW 12.7 mph 20.7 mph N/A   Overcast
4:15 AM 64.4 °F 59.0 °F 83% 29.69 in 10.0 mi SSW 13.8 mph 19.6 mph N/A   Overcast
4:35 AM 64.4 °F 59.0 °F 83% 29.68 in 10.0 mi SSW 12.7 mph 20.7 mph N/A   Overcast
4:55 AM 64.4 °F 59.0 °F 83% 29.67 in 10.0 mi SSW 13.8 mph 21.9 mph N/A Rain Light Rain
5:15 AM 64.4 °F 59.0 °F 83% 29.67 in 10.0 mi SSW 13.8 mph 19.6 mph N/A Rain Rain
5:35 AM 64.4 °F 59.0 °F 83% 29.67 in 10.0 mi SSW 12.7 mph 18.4 mph N/A Rain Rain
5:55 AM 64.4 °F 59.0 °F 83% 29.66 in 10.0 mi SSW 11.5 mph 20.7 mph N/A   Mostly Cloudy
6:15 AM 64.4 °F 59.0 °F 83% 29.66 in 10.0 mi SSW 11.5 mph 18.4 mph N/A   Scattered Clouds
6:35 AM 64.4 °F 59.0 °F 83% 29.66 in 10.0 mi South 9.2 mph 16.1 mph N/A   Mostly Cloudy
6:45 AM 66.2 °F 59.0 °F 78% 29.66 in 10.0 mi South 9.2 mph - N/A   Light Drizzle
7:45 AM 64.4 °F 60.8 °F 88% 29.65 in 7.0 mi South 10.4 mph - N/A Rain Light Rain
8:45 AM 64.4 °F 60.8 °F 88% 29.64 in 7.0 mi SSW 9.2 mph - N/A Rain Light Rain
9:45 AM 66.2 °F 60.8 °F 83% 29.63 in 10.0 mi SW 11.5 mph 17.3 mph N/A   Overcast
10:45 AM 69.8 °F 60.8 °F 73% 29.62 in 10.0 mi SW 15.0 mph 21.9 mph N/A   Mostly Cloudy
11:45 AM 69.8 °F 55.4 °F 60% 29.63 in 10.0 mi SSW 23.0 mph 31.1 mph N/A   Scattered Clouds
12:45 PM 71.6 °F 48.2 °F 43% 29.62 in 10.0 mi SW 23.0 mph 32.2 mph N/A   Clear
1:45 PM 69.8 °F 44.6 °F 40% 29.63 in 10.0 mi SW 18.4 mph 26.5 mph N/A   Clear
2:45 PM 66.2 °F 46.4 °F 49% 29.66 in 10.0 mi WSW 25.3 mph 31.1 mph N/A   Clear
3:45 PM 64.4 °F 42.8 °F 45% 29.68 in 10.0 mi West 25.3 mph 34.5 mph N/A   Clear
4:45 PM 62.6 °F 42.8 °F 48% 29.69 in 10.0 mi SW 23.0 mph 32.2 mph N/A   Clear
5:45 PM 62.6 °F 42.8 °F 48% 29.71 in 10.0 mi WSW 19.6 mph 28.8 mph N/A   Clear
6:45 PM 60.8 °F 42.8 °F 52% 29.73 in 10.0 mi West 19.6 mph 25.3 mph N/A   Overcast
7:45 PM 57.2 °F 41.0 °F 55% 29.76 in 10.0 mi West 17.3 mph 25.3 mph N/A   Overcast
8:45 PM 57.2 °F 39.2 °F 51% 29.78 in 10.0 mi WSW 15.0 mph 21.9 mph N/A   Overcast
9:15 PM 55.4 °F 39.2 °F 54% 29.79 in 10.0 mi WSW 13.8 mph 20.7 mph N/A   Overcast
9:35 PM 55.4 °F 41.0 °F 58% 29.80 in 10.0 mi West 13.8 mph 18.4 mph N/A   Overcast
9:55 PM 55.4 °F 39.2 °F 54% 29.81 in 10.0 mi West 13.8 mph 19.6 mph N/A   Mostly Cloudy
10:15 PM 53.6 °F 41.0 °F 62% 29.82 in 10.0 mi WSW 10.4 mph - N/A   Scattered Clouds
10:35 PM 53.6 °F 41.0 °F 62% 29.82 in 10.0 mi West 8.1 mph 17.3 mph N/A   Clear
10:55 PM 53.6 °F 41.0 °F 62% 29.82 in 10.0 mi WSW 9.2 mph - N/A   Clear
11:10 PM 53.6 °F 41.0 °F 62% 29.83 in 10.0 mi West 10.4 mph - N/A   Clear
11:35 PM 51.8 °F 41.0 °F 67% 29.84 in 10.0 mi SW 6.9 mph - N/A   Clear
11:55 PM 51.8 °F 41.0 °F 67% 29.85 in 10.0 mi WSW 6.9 mph - N/A   Clear